SCP
4 4 4 4 5 6 5 5 4 4 4 4 3 3 3 3 3 3 3 4 3 3 3 3 3 2 2 2 1 1 1 1 1 1 1 1 1 1 1 1 0 0 0
4 4 5 5 6 6 6 5 5 4 4 4 4 3 3 3 3 3 4 4 3 3 3 3 3 2 2 2 1 1 1 1 1 1 1 1 1 1 1 1 0 0 0
5 5 6 6 7 6 6 5 5 5 5 4 4 3 3 3 3 3 3 3 3 3 2 2 3 2 2 2 1 1 1 1 1 1 1 1 1 1 1 1 0 0 0
6 6 5 5 5 5 5 5 5 4 4 3 3 3 3 2 2 3 3 3 3 2 2 2 2 3 3 2 1 1 1 1 1 1 1 1 1 0 0 0 0 0 0
5 5 4 4 3 3 3 3 3 3 3 2 2 2 2 2 2 2 2 2 2 2 2 2 2 3 2 2 2 1 1 1 1 1 1 1 0 0 0 0 0 0 0
3 3 3 2 2 2 2 2 2 2 2 2 2 2 2 2 2 2 2 2 2 2 2 2 2 2 2 2 1 1 1 1 1 1 0 0 0 0 0 0 0 0 0
1 1 2 2 1 1 1 2 2 2 2 1 1 2 2 2 2 1 1 1 1 1 1 1 1 2 2 1 1 1 1 1 1 0 0 0 0 0 0 0 0 0 0
1 1 1 1 1 1 1 2 2 2 2 1 1 1 1 1 1 1 1 1 0 0 1 1 1 1 1 1 1 1 1 0 0 0 0 0 0 0 0 0 0 0 0
1 1 1 1 1 1 1 1 2 2 1 1 1 1 1 1 1 1 0 0 0 0 0 0 0 0 0 0 0 0 0 0 0 0 0 0 0 0 0 0 1 0 0
0 0 0 1 1 1 1 1 1 1 1 1 1 1 0 0 0 0 0 0 0 0 0 0 0 0 0 0 0 0 0 0 0 0 0 0 0 0 0 1 1 0 0
0 0 0 0 0 0 1 1 1 1 1 0 0 0 0 0 0 0 0 0 0 0 0 0 0 0 0 0 0 0 0 0 0 0 0 0 0 0 0 1 1 0 0
0 0 0 0 0 0 0 0 0 0 0 0 0 0 0 0 0 0 0 0 0 0 0 0 0 0 0 0 0 0 0 0 0 0 0 0 0 0 0 0 0 0 0
0 0 0 0 0 0 0 0 0 0 0 0 0 0 0 0 0 0 0 0 0 0 0 0 0 0 0 0 0 0 0 0 0 0 0 0 0 0 0 0 0 0 0
0 0 0 0 0 0 0 0 0 0 0 0 0 0 0 0 0 0 0 0 0 0 0 0 0 0 0 0 0 0 0 0 0 0 0 0 0 0 0 0 0 0 0
0 0 0 0 0 0 0 0 0 0 0 0 0 0 0 0 0 0 0 0 0 0 0 0 0 0 0 0 0 0 0 0 0 0 0 0 0 0 0 0 0 0 0
0 0 0 0 0 0 0 0 0 0 0 0 0 0 0 0 0 0 0 0 0 0 0 0 0 0 0 0 0 0 0 0 0 0 0 0 0 0 0 0 0 0 0
0 0 0 0 0 0 0 0 0 0 0 0 0 0 0 0 0 0 0 0 0 0 0 0 0 0 0 0 0 0 0 0 0 0 0 0 0 0 0 0 0 0 0
0 0 0 0 0 0 0 0 0 0 0 0 0 0 0 0 0 0 0 0 0 0 0 0 0 0 0 0 0 0 0 0 0 0 0 0 0 0 0 0 0 0 0
0 0 0 0 0 0 0 0 0 0 0 0 0 0 0 0 0 0 0 0 0 0 0 0 0 0 0 0 0 0 0 0 0 0 0 0 0 0 0 0 0 0 0
0 0 0 0 0 0 0 0 0 0 0 0 0 0 0 0 0 0 0 0 0 0 0 0 0 0 0 0 0 0 0 0 0 0 0 0 0 0 0 0 0 0 0
0 0 0 0 0 0 0 0 0 0 0 0 0 0 0 0 0 0 0 0 0 0 0 0 0 0 0 0 0 0 0 0 0 0 0 0 0 0 0 0 0 0 0
0 0 0 0 0 0 0 0 0 0 0 0 0 0 0 0 0 0 0 0 0 0 0 0 0 0 0 0 0 0 0 0 0 0 0 0 0 0 0 0 0 0 0
0 0 0 0 0 0 0 0 0 0 0 0 0 0 0 0 0 0 0 0 0 0 0 0 0 0 0 0 0 0 0 0 0 0 0 0 0 0 0 0 0 0 0
0 0 0 0 0 0 0 0 0 0 0 0 0 0 0 0 0 0 0 0 0 0 0 0 0 0 0 0 0 0 0 0 0 0 0 0 0 0 0 0 0 0 0
0 0 0 0 0 0 0 0 0 0 0 0 0 0 0 0 0 0 0 0 0 0 0 0 0 0 0 0 0 0 0 0 0 0 0 0 0 0 0 0 0 0 0
0 0 0 0 0 0 0 0 0 0 0 0 0 0 0 0 0 0 0 0 0 0 0 0 0 0 0 0 0 0 0 0 0 0 0 0 0 0 0 0 0 0 0
Wind_Speed
8 7 6 6 9 8 7 6 6 5 3 3 4 4 4 4 4 4 5 5 5 6 4 5 4 4 4 5 5 3 3 3 3 3 4 5 7 6 5 4 4 3 3
6 5 4 3 5 6 5 4 3 3 3 1 1 2 3 3 4 3 3 5 6 6 7 7 6 5 4 5 5 3 2 3 3 3 3 4 3 1 4 5 5 5 3
7 7 4 4 6 6 5 4 3 3 3 2 1 2 3 3 4 5 4 5 7 8 8 8 7 6 5 4 4 4 5 4 4 4 3 3 2 2 4 5 4 4 3
7 7 6 5 5 5 6 5 5 4 4 3 3 4 4 5 6 5 5 6 7 8 9 9 9 7 5 4 4 4 4 5 5 4 3 4 2 2 3 3 3 5 5
8 7 6 5 4 3 2 2 2 2 2 2 3 3 5 5 6 7 8 7 7 8 10 9 7 7 5 5 4 2 2 2 4 4 3 4 4 4 4 4 3 2 4
8 7 6 4 2 1 0 1 2 1 1 1 3 3 5 6 8 8 8 8 7 7 8 8 6 6 5 4 3 2 2 2 5 5 5 4 3 4 5 6 5 5 4
8 7 5 3 2 0 1 2 2 2 2 2 2 3 4 6 7 7 7 7 6 5 5 4 3 3 3 2 2 1 1 2 5 7 6 5 5 5 5 5 5 4 2
8 7 5 4 3 2 1 1 0 1 2 2 3 3 4 4 4 5 5 5 4 5 7 6 4 3 2 2 2 1 1 2 4 8 8 5 5 5 5 3 2 2 3
9 8 7 5 4 3 3 3 4 4 4 4 3 3 4 4 5 5 5 4 4 4 7 7 7 7 7 7 5 3 3 3 4 6 7 5 5 5 5 2 1 1 2
8 8 7 6 4 3 2 3 4 3 3 2 2 3 3 3 4 4 5 5 6 5 6 7 7 7 7 7 5 4 4 4 4 5 7 6 5 4 3 3 2 1 2
7 6 6 6 5 4 3 2 2 2 2 2 2 2 2 3 3 3 3 3 3 3 3 3 3 3 3 3 3 3 4 4 5 6 5 4 4 4 3 3 3 3 3
6 5 5 4 3 2 1 1 1 1 1 1 1 2 3 3 3 4 3 2 2 1 1 1 2 3 3 3 3 3 3 3 3 3 3 4 5 5 4 4 4 4 4
5 5 4 3 2 2 2 2 2 2 2 2 1 2 3 4 4 4 3 4 4 3 3 3 3 2 2 2 3 3 3 3 3 4 5 6 6 6 6 5 4 3 4
4 3 3 2 1 1 2 3 3 3 2 2 2 3 3 3 3 3 2 3 3 3 5 4 4 4 6 8 8 6 3 3 4 5 6 7 7 7 8 6 6 5 3
5 3 2 1 1 1 2 2 3 3 3 2 2 3 2 2 2 2 2 3 3 4 4 5 7 7 7 8 9 8 5 6 6 6 6 6 7 7 7 7 7 7 4
3 2 1 1 2 3 3 2 2 2 2 3 3 4 3 2 2 2 3 3 3 3 3 5 7 8 7 10 11 9 5 6 6 5 4 5 7 8 7 5 6 8 7
2 1 2 2 3 4 3 3 1 1 1 3 4 4 4 4 4 4 4 4 4 4 4 5 7 6 6 11 13 13 5 6 5 5 5 6 7 8 7 3 2 6 10
3 2 0 2 3 4 3 3 3 1 2 3 4 4 4 4 4 5 5 5 5 4 4 4 6 5 6 11 12 12 5 7 7 7 7 7 8 11 8 5 5 6 7
3 2 2 3 3 3 3 3 2 1 2 4 4 4 3 3 3 4 5 5 5 5 4 4 5 5 6 11 12 10 3 5 6 8 9 8 8 14 14 8 7 6 4
3 3 3 2 2 1 0 0 2 3 4 4 4 4 3 3 2 2 2 2 3 4 4 5 6 6 7 12 15 12 3 3 4 5 7 11 11 13 14 8 7 7 7
5 5 4 2 1 1 2 3 5 5 5 4 4 4 4 2 2 1 1 1 1 2 3 5 6 7 8 11 15 14 7 5 4 4 5 6 12 12 12 9 5 6 7
6 5 3 2 2 2 3 4 5 4 4 3 3 4 4 4 4 2 2 1 1 1 2 5 6 6 7 9 10 14 13 10 8 6 5 5 10 11 10 7 10 14 11
3 2 3 4 4 3 3 5 4 4 3 3 3 2 3 4 4 4 3 2 2 2 3 5 5 5 3 4 7 10 11 10 6 4 4 5 8 9 6 7 10 9 5
3 3 3 5 5 5 5 6 5 4 3 3 2 2 2 3 4 3 3 3 2 3 3 4 4 4 4 4 4 4 5 6 6 5 5 5 5 5 5 6 5 3 3
4 4 4 4 6 6 6 6 6 4 3 3 3 3 3 3 2 3 4 4 5 4 3 3 3 3 4 2 2 2 3 4 4 6 4 3 3 3 3 3 3 3 3
5 5 5 6 6 7 6 6 5 4 3 3 3 3 4 4 4 5 4 5 4 3 3 3 3 3 4 4 1 1 3 5 7 5 4 5 3 3 3 3 3 3 3
Wind_Direction
141 157 174 172 164 158 155 167 189 197 197 213 219 223 235 235 238 240 244 246 256 260 257 261 248 235 246 241 243 230 227 238 261 285 293 272 238 208 199 200 232 229 201
143 123 120 114 121 123 133 154 189 192 188 234 282 294 299 295 290 281 263 248 251 253 255 243 242 239 240 245 246 240 229 241 228 235 275 289 302 266 207 193 196 214 219
158 139 112 74 77 82 82 89 80 71 67 16 323 297 288 276 274 277 271 254 250 247 244 248 243 240 235 231 232 235 234 242 247 228 232 261 269 305 269 217 209 180 196
116 117 110 88 76 73 73 71 73 67 54 9 353 342 317 299 301 301 291 286 273 259 249 242 240 236 226 221 226 227 233 246 257 256 235 241 264 261 302 286 233 190 206
104 98 98 99 88 82 88 102 90 74 54 9 340 325 306 310 315 314 307 298 284 267 255 245 236 229 221 214 221 244 241 247 260 259 246 242 245 235 238 269 287 248 228
103 93 87 87 89 92 223 203 173 195 237 295 317 313 314 316 312 311 308 308 301 287 267 252 238 227 218 203 195 204 244 259 268 265 252 235 226 225 226 238 256 256 242
110 106 99 91 84 54 309 282 253 246 256 265 295 330 333 319 314 322 326 329 325 324 315 284 253 226 210 185 160 169 231 272 278 272 264 255 252 253 245 242 258 274 285
119 115 106 90 66 44 350 303 50 50 41 45 39 15 353 340 343 344 340 351 1 6 7 7 9 15 38 56 70 69 314 305 288 280 274 272 275 281 286 281 281 292 293
121 119 110 95 76 57 45 60 73 69 60 56 51 47 24 13 6 5 2 2 11 16 30 27 25 25 28 30 29 14 350 335 300 285 282 278 276 277 287 309 331 279 281
135 131 125 122 119 116 99 85 90 90 76 75 35 63 52 44 29 23 21 16 18 29 38 35 31 25 19 15 14 3 346 322 291 275 267 265 265 275 287 287 278 225 227
139 137 133 133 143 142 129 105 91 91 87 78 85 82 85 88 80 56 40 31 20 25 46 45 34 19 354 335 329 321 302 283 271 267 276 287 298 305 308 305 283 254 226
139 133 119 116 116 115 110 121 89 32 10 25 57 97 98 90 79 65 42 33 16 360 349 284 247 241 240 244 258 276 288 282 287 316 341 342 342 338 319 299 278 265 243
133 116 103 90 53 18 357 343 15 348 345 353 7 68 87 85 73 62 39 21 5 352 348 330 317 305 310 308 315 302 295 314 358 25 24 15 10 358 342 320 304 288 276
155 130 117 123 85 316 329 328 344 343 346 4 21 46 56 69 81 78 66 39 10 10 357 348 354 6 35 22 6 350 344 19 46 54 49 37 29 12 349 350 350 329 314
178 161 141 93 321 304 319 327 347 2 8 33 39 36 37 64 72 64 63 52 29 38 19 21 29 27 48 23 7 351 32 50 62 65 66 58 41 30 16 16 3 359 357
195 156 92 23 326 317 311 333 2 7 29 48 43 38 28 42 49 54 57 50 49 38 37 56 56 39 37 12 16 14 36 53 61 65 67 67 37 14 4 5 24 28 23
179 121 47 11 335 301 291 287 248 165 72 61 53 40 37 48 28 33 47 35 33 34 36 70 78 63 31 17 16 10 30 55 58 58 50 46 33 15 350 332 353 37 36
150 127 1 326 299 278 267 256 231 179 109 77 63 49 37 46 44 46 42 31 29 30 36 77 94 89 50 22 13 359 63 59 50 42 40 46 31 11 0 49 60 60 41
173 187 249 279 275 266 269 256 223 154 111 93 79 62 50 54 61 59 46 31 23 19 33 68 89 84 54 24 14 358 102 97 85 68 48 36 31 11 14 28 31 35 46
188 231 252 256 244 252 313 161 108 105 97 89 81 67 56 64 86 83 63 38 23 15 29 55 59 59 50 32 25 13 39 88 111 106 79 49 30 19 18 19 22 14 353
206 229 241 218 176 130 120 105 95 95 92 95 90 71 45 51 98 125 134 99 25 30 52 74 66 55 45 45 37 34 30 13 38 60 62 36 16 13 8 8 16 350 324
213 217 203 158 147 135 122 108 97 94 94 100 95 77 47 38 67 96 112 108 82 101 96 92 83 63 48 46 45 45 42 35 47 42 35 21 3 355 350 354 348 346 347
222 211 184 160 155 151 136 122 114 116 119 123 112 83 64 56 59 73 89 93 87 93 96 102 100 88 69 55 54 54 49 45 44 35 23 355 349 342 340 343 337 338 342
201 202 197 171 166 163 145 131 132 133 135 136 134 123 94 76 63 52 65 74 77 93 104 107 110 106 85 53 27 26 33 29 26 7 350 334 327 327 325 325 327 322 315
179 186 189 178 171 165 150 145 146 149 147 148 152 147 136 119 108 86 58 59 60 53 62 86 108 113 109 94 47 20 15 2 5 339 325 323 321 324 323 320 316 317 316
179 182 176 171 164 164 163 158 160 165 171 181 185 175 165 158 155 145 131 58 72 83 69 68 81 102 118 148 129 349 324 324 340 336 304 295 285 282 291 303 309 310 325